Regional Weather Roundup
Issued by NWS

Home | Current Version | Previous Version | Text Only | Print | Product List | Glossary On
Versions: 1 2 3 4 5 6 7 8 9 10 11 12 13 14 15 16 17 18 19 20 21 22 23 24 25 26 27 28
000
ASUS44 KBMX 281210
RWRAL

ALABAMA REGIONAL WEATHER ROUNDUP
NATIONAL WEATHER SERVICE BIRMINGHAM AL
700 AM CDT FRI APR 28 2017

NOTE: "FAIR" INDICATES FEW OR NO CLOUDS BELOW 12,000 FEET
WITH NO SIGNIFICANT WEATHER AND/OR OBSTRUCTIONS TO VISIBILITY.

THE REMARK "TC" DENOTES TEMPERATURE IN DEGREES CELSIUS.

ALZ001>011-014-016>018-020-281300-
NORTH ALABAMA

CITY           SKY/WX    TMP DP  RH WIND       PRES   REMARKS
MUSCLE SHOALS  PTSUNNY   61  57  87 SE8       29.90R
6HR MIN TEMP:  54; 6HR MAX TEMP:  60;

HUNTSVILLE     PTSUNNY   62  60  93 S3        29.93R
6HR MIN TEMP:  57; 6HR MAX TEMP:  62;

DECATUR        PTSUNNY   60  59  96 E6        29.92R
6HR MIN TEMP:  55; 6HR MAX TEMP:  60;

HALEYVILLE     CLOUDY    61  61 100 S9        29.93R FOG
6HR MIN TEMP:  54; 6HR MAX TEMP:  62;

GADSDEN        CLOUDY   N/A N/A N/A CALM      29.96R
$$

ALZ012-013-022-023-030>036-040>044-281300-
WEST CENTRAL ALABAMA

CITY           SKY/WX    TMP DP  RH WIND       PRES   REMARKS
TUSCALOOSA     CLOUDY    68  66  93 SE7       29.91R
6HR MIN TEMP:  58; 6HR MAX TEMP:  67;

$$

ALZ015-024>027-033>036-040>044-281300-
CENTRAL ALABAMA

CITY           SKY/WX    TMP DP  RH WIND       PRES   REMARKS
BIRMINGHAM     PTSUNNY   69  66  90 S6        29.95R
6HR MIN TEMP:  62; 6HR MAX TEMP:  69;

MONTGOMERY     CLOUDY    74  69  85 SE5       29.95R
6HR MIN TEMP:  71; 6HR MAX TEMP:  75;

SHELBY CO ARPT FOG       67  67 100 SE5       29.94R VSB 1/2
6HR MIN TEMP:  61; 6HR MAX TEMP:  67;

MAXWELL AFB    CLOUDY    73  72  98 SE5       29.95R
6HR MIN TEMP:  69; 6HR MAX TEMP:  73;

GREENVILLE     CLOUDY    73  69  87 S7        29.94R FOG
6HR MIN TEMP:  72; 6HR MAX TEMP:  74; 6HR PCP: TRACE;

$$

ALZ019-021-028-029-037-038-045>048-281300-
EAST CENTRAL ALABAMA

CITY           SKY/WX    TMP DP  RH WIND       PRES   REMARKS
ANNISTON       CLOUDY    62  62 100 CALM      29.97R
6HR MIN TEMP:  58; 6HR MAX TEMP:  62;

ALEXANDER CITY CLOUDY    71  69  95 S5        29.97R FOG
6HR MIN TEMP:  60; 6HR MAX TEMP:  71;

AUBURN         CLOUDY    71  70  96 S8        30.00R FOG
6HR MIN TEMP:  69; 6HR MAX TEMP:  71;

$$

ALZ051>064-281300-
SOUTHWEST ALABAMA

CITY           SKY/WX    TMP DP  RH WIND       PRES   REMARKS
MOBILE         CLOUDY    77  72  84 S15       29.91R
6HR MIN TEMP:  75; 6HR MAX TEMP:  77;

BROOKLEY FIELD CLOUDY    78  76  93 S13G23    29.91R
6HR MIN TEMP:  77; 6HR MAX TEMP:  78;

EVERGREEN      CLOUDY    73  71  93 SE5       29.94R
6HR MIN TEMP:  73; 6HR MAX TEMP:  74;

$$

ALZ049-050-065>069-281300-
SOUTHEAST ALABAMA

CITY           SKY/WX    TMP DP  RH WIND       PRES   REMARKS
DOTHAN         CLOUDY    73  71  93 S10       30.02R
6HR MIN TEMP:  71; 6HR MAX TEMP:  73;

OZARK          PTSUNNY   73  71  92 SE5       29.97R
6HR MIN TEMP:  72; 6HR MAX TEMP:  74;

TROY           MOSUNNY   71  71 100 SE7       29.97R
6HR MIN TEMP:  70; 6HR MAX TEMP:  73;

EUFAULA        FAIR      73  70  90 S7        29.97R
6HR MIN TEMP:  72; 6HR MAX TEMP:  74;

$$




USA.gov is the U.S. government's official web portal to all federal, state and local government web resources and services.